Regional Weather Roundup
Issued by NWS

Home | Current Version | Previous Version | Text Only | Print | Product List | Glossary Off
Versions: 1 2 3 4 5 6 7 8 9 10 11 12 13 14 15 16 17 18 19 20 21 22 23 24 25 26 27 28 29 30 31 32 33 34 35 36 37 38 39 40 41 42 43 44 45 46 47 48 49 50

000
ASUS45 KTFX 271110
RWRMT
MONTANA REGIONAL WEATHER ROUNDUP
NATIONAL WEATHER SERVICE GREAT FALLS MT
400 AM MST MON FEB 27 2017

NOTE: "FAIR" INDICATES FEW OR NO CLOUDS BELOW 12000 FEET WITH NO
SIGNIFICANT WEATHER AND/OR OBSTRUCTIONS TO VISIBILITY.

MTZ001>007-043-271200-
WEST OF THE DIVIDE

CITY           SKY/WX    TMP DP  RH WIND       PRES   REMARKS
KALISPELL      CLOUDY    16   9  74 N12       29.63F WCI   3
MISSOULA       LGT SNOW  24  23  96 SW3       29.59F FOG
BUTTE          CLEAR     14   6  70 SE3       29.51S
MULLAN PASS    FLURRIES  16  12  84 SW3       29.45F
ANACONDA         N/A     12   9  85 SW3       29.53S
DEER LODGE       N/A     14  10  85 CALM      29.56F
EUREKA           N/A     16  12  86 CALM      29.66F
HAMILTON         N/A     27  19  74 S9        29.56F WCI  17
LIBBY            N/A     18  16  93 CALM      29.62F
PLAINS           N/A     24  17  74 E1        29.66S
RONAN            N/A     20  16  84 N5        29.67F
$$

MTZ008-052>055-271200-
SOUTHWEST MONTANA

CITY           SKY/WX    TMP DP  RH WIND       PRES   REMARKS
BOZEMAN        CLOUDY    18  14  84 S6        29.57R WCI  10
DILLON         CLEAR     15   7  70 SW10      29.52F WCI   2
W YELLOWSTONE  CLOUDY     3   1  92 CALM      29.52S
ENNIS          CLEAR     19   7  58 S8        29.57F WCI   9
THREE FORKS      N/A     16 -20  19 W2        29.62S
TWIN BRIDGES     N/A     14   2  59 NE3       29.59S
$$

MTZ009-010-012-014-046-048-049-054-271200-
EAST SLOPES AND CENTRAL MONTANA

CITY           SKY/WX    TMP DP  RH WIND       PRES   REMARKS
CUT BANK       LGT SNOW   8   5  87 E5        29.64F FOG
GREAT FALLS    LGT SNOW  12   9  87 NE8       29.65F FOG     WCI   0
MALMSTROM AFB  LGT SNOW  12  10  95 NE9       29.67F WCI  -1
HELENA         CLOUDY    11   9  92 W6        29.62F WCI   1
AUGUSTA        FLURRIES   4   2  90 N7        29.60F WCI  -8
BOWMANS CRNR   FLURRIES   6   4  91 N6        29.60S WCI  -5
CHOTEAU          N/A      7   5  92 NW6       29.66F FOG     WCI  -3
CONRAD           N/A      9   7  92 CALM      29.71F
POWER          FLURRIES   9   6  88 NE6       29.64F WCI  -1
RAYNESFORD     LGT SNOW  12   9  89 CALM      29.62F
ULM            LGT SNOW  12  11  94 MISG      29.66F
$$

MTZ011-013-016-021-045-047-050-051-271200-
NORTH CENTRAL MONTANA

CITY           SKY/WX    TMP DP  RH WIND       PRES   REMARKS
HAVRE          CLOUDY    11   8  88 NE9       29.75F WCI  -2
LEWISTOWN      LGT SNOW  15  12  88 E6        29.60F FOG     WCI   6
N BAR RANCH    LGT SNOW  12   9  85 NE3       29.61S
CHINOOK          N/A     10   7  85 CALM      29.78F
DENTON         LGT SNOW  14  13  93 NE9       29.62S WCI   2
GEYSER         LGT SNOW  12  10  89 CALM      29.62S
GRASS RANGE    LGT SNOW  15  13  95 E5        29.60S
JUDITH GAP     LGT SNOW  11   8  87 NW13      29.57S WCI  -3
ROY            FLURRIES  13  12  94 MISG      29.64F
STANFORD       LGT SNOW  11   9  92 NW7       29.60S WCI   0
WINIFRED       LGT SNOW  13  12  95 E9        29.64S WCI   1
$$

MTZ017>020-022>027-061-062-271200-
NORTHEAST MONTANA

CITY           SKY/WX    TMP DP  RH WIND       PRES   REMARKS
GLASGOW        LGT SNOW  15  11  83 NE9       29.76F FOG     WCI   3
JORDAN           N/A     18  14  84 NE10      29.70F WCI   6
SIDNEY         LGT SNOW  17  14  88 NE10      29.78S FOG     WCI   5
WOLF POINT     LGT SNOW  17  12  80 NE9       29.80S WCI   6
PLENTYWOOD       N/A      7   1  78 N10       29.80R WCI  -8
POPLAR           N/A     14  10  85 NE12      29.81S WCI   0
SCOBEY           N/A      7  -3  63 CALM      29.78R
$$

MTZ028>42-056>058-271200-
SOUTHCENTRAL AND SOUTHEAST MONTANA

CITY           SKY/WX    TMP DP  RH WIND       PRES   REMARKS
BAKER          CLOUDY    22  18  85 SE16      29.65F WCI   8
BILLINGS       PTCLDY    19  16  88 N7        29.59R WCI  10
LIVINGSTON     MOCLDY    20  13  74 VRB7      29.52S WCI  11
MILES CITY     PTCLDY    24  19  81 NE14      29.63F WCI  12
BIG TIMBER     CLOUDY    18  16  93 NE9       29.58S WCI   6
EKALAKA          N/A     22  16  78 SE17      29.62F WCI   8
FORSYTH          N/A     21  19  93 N5        29.62F
HARLOWTON      LGT SNOW  15  12  88 NE12      29.58S WCI   1
LAUREL           N/A     18   8  64 W2        29.61R
ROUNDUP          N/A     17  11  77 N10       29.57S WCI   5
$$

REGIONAL REPORTS...DAKOTAS

CITY           SKY/WX    TMP DP  RH WIND       PRES   REMARKS
WILLISTON      LGT SNOW  13   8  81 N8        29.81R WCI   2
MINOT          CLOUDY    14   9  80 NW8       29.80S WCI   3
DICKINSON      LGT SNOW  18  15  88 S9        29.72S FOG     WCI   7
BEACH            N/A    N/A N/A N/A MISG        N/A
CROSBY         CLOUDY     7   1  78 NW7       29.84R WCI  -5
TIOGA          FLURRIES   9   9 100 NE5       29.80S
WATFORD CITY   LGT SNOW  14  10  85 N9        29.79R WCI   2
BISMARCK       CLOUDY    10   7  87 NE5       29.84S
GRAND FORKS    CLOUDY    11   4  73 S9        29.89F WCI  -2
FARGO          CLOUDY    22  15  75 CALM      29.91R
BUFFALO SD       N/A     21  19  92 S7        29.61F WCI  12
RAPID CITY     PTCLDY    21  13  71 S10       29.66F WCI  10
$$

REGIONAL REPORTS...WYOMING/IDAHO/WASHINGTON

CITY           SKY/WX    TMP DP  RH WIND       PRES   REMARKS
GILLETTE       CLOUDY    21  11  65 CALM      29.57F
SHERIDAN       CLEAR     18   8  65 SW9       29.55F WCI   7
BUFFALO WY     CLOUDY    23   1  38 VRB5      29.53F
CODY           CLOUDY    21  11  65 N3        29.53F
YELLOWSTONE LA   N/A      9   7  92 CALM      29.49F
IDAHO FALLS    CLOUDY    22  22 100 CALM      29.60F
SALMON         CLOUDY    23  14  68 CALM      29.58F
BOISE          LGT SNOW  29  25  85 SE6       29.66R FOG     WCI  23
SPOKANE        LGT SNOW  26  24  92 SW3       29.63F VSB 1
$$

REGIONAL REPORTS...ALBERTA

CITY           SKY/WX    TMP DP  RH WIND       PRES   REMARKS
EDMONTON       CLEAR      3  -4  72 SW8       29.65F WCI -10
CALGARY        PTCLDY     3   0  85 S8        29.61F WCI -10
LETHBRIDGE     CLEAR     -2  -4  92 SE7       29.70F WCI -16
MEDICINE HAT   CLEAR     -2  -6  84 CALM      29.79S
WATERTON GATE    N/A      0  -4  85 SW3         N/A
CARDSTON         N/A      5   1  85 S1          N/A
MILK RIVER       N/A      3   1  92 E1          N/A
$$

REGIONAL REPORTS...SASKATCHEWAN

CITY           SKY/WX    TMP DP  RH WIND       PRES   REMARKS
SWIFT CURRENT  CLOUDY     0  -4  85 NW3       29.74F
REGINA         MOCLDY     0  -4  85 NW7       29.83S WCI -13
SASKATOON      CLEAR     -9 -13  84 W5        29.85S
CYPRESS HILLS    N/A     -4  -8  84 SW1         N/A
VAL MARIE        N/A      1   0  92 NE3         N/A
ROCKGLEN         N/A      1  -2  85 N3          N/A
ASSINIBOIA       N/A     -2  -6  84 S7          N/A  WCI -16
$$



USA.gov is the U.S. government's official web portal to all federal, state and local government web resources and services.